Weather observations for the past three days for
Yap Island - Yap Int. Airport
| Date | Time (+10) | Wind (kph) | Vis. (km) | Weather | Sky Cond. | Temperature (ºC) | Relative Humidity | Wind Chill (°C) | Heat Index (°C) | Pressure | Precipitation (cm) | ||||||
|---|---|---|---|---|---|---|---|---|---|---|---|---|---|---|---|---|---|
| Air | Dwpt | 6 hour | altimeter (cm) | sea level (mb) | 1 hr | 3 hr | 6 hr | ||||||||||
| Max. | Min. | ||||||||||||||||
| 06 | 14:56 | E 19 | 19.31 | Mostly Cloudy | SCT016TCU BKN300 | 31 | 26.4 | 77% | 40 | 75.54 | 1007.3 | ||||||
| 06 | 13:52 | E 13 | 19.31 | Mostly Cloudy | SCT016TCU BKN300 | 29.6 | 27.4 | 88% | 39 | 75.62 | 1008.1 | ||||||
| 06 | 12:52 | E 17 | 19.31 | Mostly Cloudy | SCT016TCU BKN300 | 30.9 | 26.4 | 77% | 40 | 75.67 | 1008.8 | ||||||
| 06 | 11:53 | E 17 | 19.31 | Mostly Cloudy | SCT016TCU BKN300 | 30.7 | 26.5 | 78% | 39 | 75.69 | 1009.3 | ||||||
| 06 | 10:52 | E 17 | 19.31 | Mostly Cloudy | SCT016TCU BKN300 | 30.9 | 26.8 | 79% | 40 | 75.74 | 1010.0 | ||||||
| 06 | 09:50 | E 13 | 19.31 | Mostly Cloudy | SCT016TCU SCT130 BKN300 | 30 | 27 | 30 | 26.7 | 84% | 39 | 75.77 | 1010.3 | ||||
| 06 | 08:55 | E 17 | 19.31 | Mostly Cloudy | SCT016TCU SCT130 BKN300 | 29.2 | 26.6 | 86% | 37 | 75.79 | 1010.5 | ||||||
| 06 | 07:50 | E 13 | 19.31 | Mostly Cloudy | SCT016TCU SCT130 BKN300 | 28 | 26.5 | 92% | 34 | 75.72 | 1009.6 | ||||||
| 06 | 06:50 | Vrbl 7 | 19.31 | Mostly Cloudy | SCT016TCU SCT130 BKN300 | 26.9 | 26.2 | 96% | 31 | 75.69 | 1009.1 | ||||||
| 06 | 05:55 | Vrbl 7 | 19.31 | Mostly Cloudy | SCT016 SCT130 BKN300 | 26.7 | 26.1 | 97% | 30 | 75.67 | 1009.0 | ||||||
| 06 | 04:52 | Vrbl 11 | 19.31 | Mostly Cloudy | SCT016 SCT130 BKN300 | 27.1 | 26 | 94% | 31 | 75.62 | 1008.3 | ||||||
| 06 | 03:52 | Vrbl 9 | 19.31 | Mostly Cloudy | SCT016 SCT130 BKN300 | 26.7 | 26 | 27.9 | 26.7 | 96% | 30 | 75.64 | 1008.4 | 0.08 | |||
| 06 | 01:55 | E 13 | 19.31 | Mostly Cloudy | SCT016CB SCT130 BKN300 | 27.5 | 26.3 | 93% | 33 | 75.69 | 1009.3 | ||||||
| 06 | 00:53 | E 15 | 19.31 | Mostly Cloudy | FEW016 BKN300 | 27.9 | 26 | 89% | 33 | 75.72 | 1009.6 | ||||||
| 05 | 23:50 | E 13 | 19.31 | Mostly Cloudy | FEW016 BKN300 | 27.9 | 26.6 | 93% | 34 | 75.77 | 1010.1 | ||||||
| 05 | 22:50 | E 15 | 19.31 | Mostly Cloudy | FEW016 BKN300 | 27.8 | 26.6 | 93% | 34 | 75.74 | 1010.0 | ||||||
| 05 | 21:52 | Vrbl 11 | 19.31 | Mostly Cloudy | SCT016TCU BKN300 | 27.5 | 26.6 | 30 | 27.4 | 95% | 33 | 75.74 | 1009.8 | 0.03 | |||
| 05 | 20:53 | Vrbl 9 | 19.31 | Mostly Cloudy | FEW016 BKN300 | 27.4 | 26.9 | 97% | 33 | 75.69 | 1009.3 | ||||||
| 05 | 19:51 | Vrbl 9 | 19.31 | Mostly Cloudy | FEW016 BKN300 | 27.4 | 26.6 | 95% | 33 | 75.67 | 1008.8 | ||||||
| 05 | 18:54 | E 13 | 19.31 | Mostly Cloudy | FEW016 BKN300 | 28.1 | 25.9 | 88% | 34 | 75.62 | 1008.1 | ||||||
| 05 | 17:53 | Vrbl 11 | 19.31 | Mostly Cloudy | FEW016 BKN300 | 28.9 | 26.6 | 87% | 36 | 75.57 | 1007.6 | ||||||
| 05 | 16:52 | E 13 | 19.31 | Mostly Cloudy | SCT016 SCT130 BKN300 | 30 | 26.3 | 81% | 38 | 75.57 | 1007.4 | ||||||
| 05 | 15:55 | SE 13 | 19.31 | Mostly Cloudy | SCT016 SCT130 BKN300 | 29.7 | 26.7 | 30.6 | 29 | 84% | 38 | 75.54 | 1007.3 | ||||
| 05 | 14:50 | SE 13 | 19.31 | Mostly Cloudy | FEW016 SCT130 BKN300 | 30.5 | 26.1 | 77% | 38 | 75.59 | 1007.8 | ||||||
| 05 | 13:50 | SE 17 | 19.31 | Mostly Cloudy | FEW016 SCT130 BKN300 | 30.6 | 26.7 | 80% | 39 | 75.62 | 1008.1 | ||||||
| 05 | 12:52 | E 15 | 19.31 | Mostly Cloudy | FEW016 SCT130 BKN300 | 30.2 | 26.7 | 82% | 39 | 75.64 | 1008.6 | ||||||
| 05 | 11:52 | E 15 | 19.31 | Mostly Cloudy | FEW016 SCT130 BKN300 | 30.5 | 26.6 | 80% | 39 | 75.69 | 1009.3 | ||||||
| 05 | 10:53 | E 19 | 19.31 | Mostly Cloudy | FEW016 SCT130 BKN300 | 30.5 | 26.4 | 79% | 39 | 75.72 | 1009.6 | ||||||
| 05 | 09:53 | Vrbl 11 | 19.31 | Mostly Cloudy | SCT016TCU SCT130 BKN300 | 29 | 27.2 | 29 | 26.8 | 90% | 37 | 75.74 | 1009.8 | 0.08 | |||
| 05 | 08:51 | Vrbl 9 G 17 | 19.31 | Mostly Cloudy | FEW016 SCT130 BKN300 | 28 | 26.8 | 93% | 34 | 75.74 | 1009.8 | ||||||
| 05 | 07:53 | Vrbl 11 G 22 | 19.31 | Mostly Cloudy | FEW016TCU SCT130 BKN300 | 26.8 | 26.3 | 97% | 31 | 75.72 | 1009.5 | ||||||
| 05 | 06:52 | SE 13 G 24 | 19.31 | Overcast | SCT016CB OVC300 | 27.6 | 26.7 | 95% | 33 | 75.72 | 1009.5 | ||||||
| 05 | 05:55 | SE 15 G 26 | 19.31 | Overcast | SCT016CB OVC300 | 27.6 | 26.7 | 95% | 33 | 75.69 | 1009.1 | ||||||
| 05 | 04:54 | SE 15 G 28 | 19.31 | Overcast | SCT016CB OVC300 | 26.9 | 26.4 | 97% | 31 | 75.59 | 1007.9 | ||||||
| 05 | 03:57 | Vrbl 11 G 26 | 19.31 | Overcast | SCT016CB OVC300 | 27.3 | 27 | 27.7 | 27.2 | 98% | 33 | 75.59 | 1007.9 | 0.03 | |||
| 05 | 02:53 | E 15 G 30 | 19.31 | Overcast | SCT016CB OVC300 | 27.5 | 26.9 | 97% | 33 | 75.62 | 1008.3 | ||||||
| 05 | 01:51 | Vrbl 11 G 24 | 19.31 | Mostly Cloudy | SCT016CB BKN300 | 27.7 | 26.8 | 95% | 34 | 75.64 | 1008.6 | ||||||
| 05 | 00:53 | Vrbl 11 | 19.31 | Mostly Cloudy | FEW016CB BKN300 | 27.5 | 26.7 | 95% | 33 | 75.69 | 1009.1 | ||||||
| 04 | 23:50 | E 15 | 19.31 | Mostly Cloudy | FEW016CB BKN300 | 27.6 | 26.8 | 95% | 33 | 75.72 | 1009.5 | ||||||
| 04 | 22:53 | E 17 | 19.31 | Mostly Cloudy | FEW016CB SCT130 BKN300 | 27.2 | 26.8 | 98% | 32 | 75.72 | 1009.5 | ||||||
| 04 | 21:53 | E 19 | 19.31 | Mostly Cloudy | FEW016CB SCT130 BKN300 | 27.4 | 26.5 | 29.5 | 26.9 | 95% | 33 | 75.72 | 1009.5 | 0.23 | |||
| 04 | 20:54 | E 13 | 19.31 | Overcast | FEW016CB SCT130 OVC300 | 27.2 | 26.4 | 95% | 32 | 75.67 | 1009.0 | ||||||
| 04 | 19:52 | E 13 | 19.31 | Overcast | SCT016CB SCT130 OVC300 | 27.4 | 26.5 | 95% | 33 | 75.64 | 1008.4 | ||||||
| 04 | 18:54 | E 15 | 19.31 | Mostly Cloudy | FEW016CB SCT130 BKN300 | 27.2 | 26.5 | 96% | 32 | 75.59 | 1007.8 | 0.15 | |||||
| 04 | 17:52 | E 20 | 19.31 | Mostly Cloudy | SCT016CB BKN300 | 26.9 | 26.1 | 95% | 31 | 75.54 | 1007.3 | ||||||
| 04 | 16:51 | NE 22 G 41 | 19.31 | Mostly Cloudy | SCT016CB BKN300 | 27.3 | 26.7 | 97% | 32 | 75.54 | 1007.1 | ||||||
| 04 | 15:53 | E 19 | 19.31 | Overcast | SCT016CB OVC300 | 29.5 | 27.9 | 31.3 | 29.5 | 91% | 39 | 75.54 | 1007.1 | 0.03 | |||
| 04 | 14:52 | E 17 G 28 | 19.31 | Overcast | SCT016CB OVC300 | 29.6 | 27.4 | 88% | 39 | 75.57 | 1007.4 | ||||||
| 04 | 13:53 | E 30 G 41 | 19.31 | Mostly Cloudy | SCT016 BKN300 | 31.3 | 26.4 | 75% | 40 | 75.59 | 1007.8 | ||||||
| 04 | 12:50 | E 24 G 35 | 19.31 | Mostly Cloudy | SCT016TCU BKN300 | 31 | 26.8 | 78% | 40 | 75.64 | 1008.4 | ||||||
| 04 | 11:51 | E 24 G 39 | 19.31 | Mostly Cloudy | SCT016TCU BKN300 | 30.5 | 26.8 | 81% | 39 | 75.69 | 1009.1 | ||||||
| 04 | 10:55 | E 24 G 41 | 19.31 | Mostly Cloudy | FEW016 SCT130 BKN300 | 30.6 | 26.7 | 80% | 39 | 75.72 | 1009.5 | ||||||
| 04 | 09:53 | E 19 G 37 | 19.31 | Mostly Cloudy | FEW016 SCT130 BKN300 | 30.2 | 26.6 | 30.2 | 26.6 | 81% | 39 | 75.72 | 1009.6 | ||||
| 04 | 08:51 | E 15 | 19.31 | Mostly Cloudy | FEW016 SCT130 BKN300 | 28.8 | 26.7 | 88% | 36 | 75.72 | 1009.5 | ||||||
| 04 | 06:56 | Vrbl 7 | 19.31 | Mostly Cloudy | FEW016 BKN130 BKN300 | 27.1 | 26.3 | 95% | 32 | 75.62 | 1008.3 | ||||||
| 04 | 04:59 | Vrbl 11 | 19.31 | Overcast | SCT016CB BKN130 OVC300 | 26.6 | 26.1 | 97% | 30 | 75.59 | 1007.8 | ||||||
| 04 | 03:57 | Vrbl 11 | 19.31 | Overcast | SCT016CB OVC120 | 26.8 | 26.2 | 26.9 | 26 | 97% | 31 | 75.59 | 1007.9 | 0.03 | |||
| 04 | 02:55 | E 19 | 19.31 | Overcast | SCT016CB OVC120 | 26.8 | 26.3 | 97% | 31 | 75.59 | 1007.9 | ||||||
| 04 | 01:51 | Vrbl 9 | 19.31 | Overcast | SCT016CB OVC120 | 26.9 | 26.3 | 97% | 31 | 75.64 | 1008.4 | ||||||
| 04 | 00:54 | Vrbl 11 | 19.31 | Overcast | SCT016CB OVC120 | 26.5 | 25.8 | 96% | 30 | 75.67 | 1008.8 | 0.03 | |||||
| 03 | 23:50 | Vrbl 11 | 19.31 | Overcast | SCT016CB OVC120 | 26.8 | 26.4 | 98% | 31 | 75.69 | 1009.3 | ||||||
| 03 | 22:51 | NE 15 | 19.31 | Overcast | SCT016CB OVC120 | 26.3 | 26 | 98% | 29 | 75.69 | 1009.1 | ||||||
| 03 | 21:51 | E 19 | 19.31 | Overcast | SCT016CB OVC120 | 26.2 | 25.9 | 26.6 | 25.6 | 98% | 29 | 75.69 | 1009.3 | 1.47 | |||
| 03 | 20:50 | E 15 G 28 | 16.09 | Light Showers Rain | SCT016CB OVC120 | 25.6 | 25.3 | 98% | 27 | 75.69 | 1009.1 | ||||||
| 03 | 19:52 | E 15 G 33 | 16.09 | Light Showers Rain | SCT016CB OVC120 | 25.8 | 25.6 | 99% | 28 | 75.67 | 1008.8 | ||||||
| 03 | 18:51 | NE 13 | 19.31 | Overcast | SCT016CB OVC120 | 26.6 | 26.1 | 97% | 30 | 75.62 | 1008.3 | 0.41 | |||||
| 03 | 17:50 | NE 15 | 17.70 | Light Showers Rain | SCT016CB OVC120 | 26.5 | 26.1 | 98% | 30 | 75.57 | 1007.6 | ||||||
| 03 | 16:52 | Vrbl 11 | 16.09 | Light Showers Rain | SCT016CB OVC120 | 26.6 | 26 | 97% | 30 | 75.54 | 1007.3 | ||||||
| Date | Time (+10) | Wind (kph) | Vis. (km) | Weather | Sky Cond. | Air | Dwpt | Max. | Min. | Relative Humidity | Wind Chill (°C) | Heat Index (°C) | altimeter (cm) | sea level (mb) | 1 hr | 3 hr | 6 hr |
| 6 hour | |||||||||||||||||
| Temperature (ºC) | Pressure | Precipitation (cm) | |||||||||||||||